[Iaude] MPEC V169: 2023 VM5 [a=2.60,e=0.61,i=3.5,H=24.4]

mpec at marsden.cfa.harvard.edu mpec at marsden.cfa.harvard.edu
Fri Nov 10 08:32:23 EST 2023


M.P.E.C. 2023-V169                            Issued 2023 November 10, 13:30 UT

     The Minor Planet Electronic Circulars contain information on unusual
         minor planets, routine data on comets and natural satellites,
         and occasional editorial announcements.  They are published
    on behalf of Division F of the International Astronomical Union by the
          Minor Planet Center, Smithsonian Astrophysical Observatory,
                          Cambridge, MA 02138, U.S.A.
			  
             Prepared using the Tamkin Foundation Computer Network

                              MPC at CFA.HARVARD.EDU
            URL https://www.minorplanetcenter.net/    ISSN 1523-6714

                                    2023 VM5                                    


Observations:
     K23V05M*1C2023 11 08.40106105 17 23.734-03 18 07.27         20.58GVEV169G96
     K23V05M 1C2023 11 08.40624705 17 27.247-03 18 03.96         20.89GVEV169G96
     K23V05M 1C2023 11 08.41240605 17 31.448-03 17 58.96         20.54GVEV169G96
     K23V05M KC2023 11 08.49294605 18 26.710-03 16 57.90         21.45GVEV169I52
     K23V05M KC2023 11 08.49462305 18 27.840-03 16 57.00         20.24GVEV169I52
     K23V05M KC2023 11 08.49630205 18 28.970-03 16 55.80         21.37GVEV169I52
     K23V05M KC2023 11 08.49796805 18 30.150-03 16 55.00               VEV169I52
     K23V05M 1C2023 11 08.99282 05 24 33.19 -03 10 49.3          20.9 VXEV169033
     K23V05M 1C2023 11 08.99427 05 24 34.20 -03 10 48.8          20.7 VXEV169033
     K23V05M 1C2023 11 08.99571 05 24 35.29 -03 10 47.8          20.6 VXEV169033
     K23V05M KC2023 11 09.40270805 29 34.386-03 04 49.22         20.24GVEV169I52
     K23V05M KC2023 11 09.40409205 29 35.344-03 04 47.50         20.57GVEV169I52
     K23V05M KC2023 11 09.40547405 29 36.308-03 04 46.85         20.93GVEV169I52
     K23V05M KC2023 11 09.40686105 29 37.273-03 04 45.05         20.68GVEV169I52
     K23V05M KC2023 11 10.50549905 43 30.630-02 47 57.30         20.85GVEV169I52
     K23V05M KC2023 11 10.50734305 43 32.070-02 47 55.80         21.14GVEV169I52

Observer details:
033 Karl Schwarzschild Observatory, Tautenburg.  Observers S. Melnikov, C.
    Hogner, F. Ludwig, M. Hartmann, B. Stecklum.  Measurer B. Stecklum.
    1.34-m f/3 Schmidt + CCD.
G96 Mt. Lemmon Survey.  Observer D. Rankin.  Measurers E. C. Beshore, D. Fay,
    J. B. Fazekas, D. C. Fuls, A. R. Gibbs, A. D. Grauer, H. Groeller, J. K.
    Hogan, R. A. Kowalski, S. M. Larson, G. J. Leonard, D. Rankin, R. L.
    Seaman, F. C. Shelly, K. W. Wierzchos.  1.5-m reflector + 10K CCD.
I52 Steward Observatory, Mt. Lemmon Station.  Observer H. Groeller.  Measurers
    E. C. Beshore, D. Fay, J. B. Fazekas, D. C. Fuls, A. R. Gibbs, A. D.
    Grauer, H. Groeller, J. K. Hogan, R. A. Kowalski, S. M. Larson, G. J.
    Leonard, D. Rankin, R. L. Seaman, F. C. Shelly, K. W. Wierzchos.  1.0-m
    prime focus + CCD.

Orbital elements:
2023 VM5                                                 Earth MOID = 0.0298 AU
Epoch 2023 Sept. 13.0 TT = JDT 2460200.5                Veres                   
M 340.84380              (2000.0)            P               Q                  
n   0.23461209     Peri.  347.63038     +0.21079205     -0.97564748             
a   2.6035692      Node    90.17773     +0.90195613     +0.17019869             
e   0.6109226      Incl.    3.47728     +0.37688440     +0.13836332             
P   4.20           H   24.41          G   0.15           U   9                  
Residuals in seconds of arc
231108 G96  0.1+  0.1+    231108 I52  0.2+  0.6-    231109 I52  0.0   0.2-
231108 G96  0.2-  0.4-    231108 033  0.3+  0.5+    231109 I52  0.4-  0.4+
231108 G96  0.2-  0.0     231108 033  0.0   0.2-    231110 I52  0.2-  0.0
231108 I52  0.6+  0.3+    231108 033  1.0+  0.3-    231110 I52  0.7+  0.3-
231108 I52  0.2+  0.1-    231109 I52  0.7+  0.3-
231108 I52  0.3-  0.2-    231109 I52  0.2+  0.3+

Ephemeris:
2023 VM5                 a,e,i = 2.60, 0.61, 3                   q = 1.0130
Date    TT    R. A. (2000) Decl.     Delta      r    Elong.  Phase     V
2023 10 11    02 29 23.5 -02 39 30   0.2467  1.2287   156.5    18.9    22.8
...
2023 10 26    03 25 11.8 -03 57 33   0.1532  1.1332   153.2    23.3    21.7
...
2023 11 03    04 21 20.8 -03 59 12   0.1160  1.0910   146.7    30.0    21.2
...
2023 11 09    05 24 36.2 -03 09 32   0.09668 1.0645   137.9    38.6    21.0
2023 11 10    05 37 04.0 -02 55 06   0.09441 1.0605   136.1    40.4    21.0
2023 11 11    05 50 00.3 -02 38 46   0.09244 1.0567   134.1    42.3    21.0
...
2023 11 17    07 13 27.6 -00 27 15   0.08763 1.0369   121.1    54.7    21.2
...
2023 11 25    08 54 20.1 +02 47 33   0.09884 1.0195   106.4    68.3    21.8
...
2023 12 10    10 40 11.4 +06 23 18   0.1478  1.0165    98.1    73.6    22.9

M. P. C. Staff               (C) Copyright 2023 MPC           M.P.E.C. 2023-V169




More information about the Iaude mailing list